Jaffrey, NH

5:48 PM EDT on May 28, 2017 (GMT -0400)
Jaffrey Airport-Silver Ranch

Weather History for KAFN - July, 2013

Change the Weather History Date:

Friday, July 19, 2013

  Actual Average Record
Temperature  
Mean Temperature 82 °F -  
Max Temperature 93 °F 75 °F 93 °F (2013)
Min Temperature 71 °F 55 °F 52 °F (1998)
Cooling Degree Days 17    
Growing Degree Days 32 (Base 50)    
Moisture  
Dew Point 69 °F    
Average Humidity 66    
Maximum Humidity 93    
Minimum Humidity 44    
Precipitation  
Precipitation 0.00 in - - ()
Sea Level Pressure  
Sea Level Pressure 29.87 in    
Wind  
Wind Speed 6 mph (SW)    
Max Wind Speed 15 mph    
Max Gust Speed 23 mph    
Visibility 10 miles    
Events      
Averages and records for this station are not official NWS values.
T = Trace of Precipitation, MM = Missing Value Source: NWS Daily Summary

Daily Weather History Graph

Daily Weather History Graph

Search for Another Location

Airport or City:

Trip Planner

Search our weather history database for the weather conditions in past years. The results will help you decide how hot, cold, wet, or windy it might be!

Date:

Astronomy

Jul. 19, 2013 Rise Set
Actual Time 5:26 AM EDT 8:21 PM EDT
Civil Twilight 4:53 AM EDT 8:54 PM EDT
Nautical Twilight 4:10 AM EDT 9:37 PM EDT
Astronomical Twilight 3:20 AM EDT 10:26 PM EDT
Moon 5:20 PM EDT (7/19) 2:05 AM EDT (7/19)
Length of Visible Light 16h 01m
Length of Day
14h 54m
Waxing Gibbous, 86% of the Moon is Illuminated
Jul 19
Waxing Gibbous
Jul 22
Full
Jul 29
Last Quarter
Aug 6
New
Aug 14
First Quarter

Hourly Weather History & Observations

Time (EDT) Temp. Heat Index Dew Point Humidity Pressure Visibility Wind Dir Wind Speed Gust Speed Precip Events Conditions
12:52 AM 71.1 °F - 68.0 °F 90% 29.99 in 10.0 mi Calm Calm - N/A   Clear
1:52 AM 71.1 °F - 68.0 °F 90% 29.98 in 10.0 mi Calm Calm - N/A   Clear
2:52 AM 71.1 °F - 69.1 °F 93% 29.97 in 10.0 mi South 3.5 mph - N/A   Clear
3:52 AM 72.0 °F - 69.1 °F 91% 29.96 in 10.0 mi South 4.6 mph - N/A   Clear
4:52 AM 72.0 °F - 69.1 °F 91% 29.95 in 10.0 mi SSW 4.6 mph - N/A   Clear
5:52 AM 72.0 °F - 69.1 °F 91% 29.94 in 8.0 mi SSW 5.8 mph - N/A   Clear
6:52 AM 73.0 °F - 69.1 °F 87% 29.94 in 10.0 mi SSW 3.5 mph - N/A   Clear
7:52 AM 77.0 °F - 70.0 °F 79% 29.93 in 10.0 mi SSW 6.9 mph - N/A   Clear
8:52 AM 81.0 °F 84.4 °F 70.0 °F 69% 29.93 in 10.0 mi Variable 5.8 mph - N/A   Clear
9:52 AM 84.9 °F 88.2 °F 68.0 °F 57% 29.91 in 10.0 mi SW 6.9 mph 17.3 mph N/A   Clear
10:52 AM 87.1 °F 89.9 °F 66.9 °F 51% 29.90 in 10.0 mi SW 13.8 mph 21.9 mph N/A   Clear
11:52 AM 89.1 °F 92.1 °F 66.9 °F 48% 29.88 in 10.0 mi WSW 11.5 mph 19.6 mph N/A   Clear
12:52 PM 91.9 °F 95.9 °F 68.0 °F 45% 29.86 in 10.0 mi WSW 9.2 mph 23.0 mph N/A   Clear
1:52 PM 91.9 °F 95.4 °F 66.9 °F 44% 29.85 in 10.0 mi West 15.0 mph 21.9 mph N/A   Partly Cloudy
2:52 PM 91.9 °F 95.4 °F 66.9 °F 44% 29.82 in 10.0 mi SW 8.1 mph 19.6 mph N/A   Partly Cloudy
3:52 PM 93.0 °F 97.4 °F 68.0 °F 44% 29.79 in 10.0 mi SW 11.5 mph 20.7 mph N/A   Partly Cloudy
4:52 PM 91.9 °F 96.9 °F 69.1 °F 47% 29.77 in 10.0 mi SSW 12.7 mph 20.7 mph N/A   Clear
5:52 PM 91.0 °F 96.6 °F 70.0 °F 50% 29.76 in 10.0 mi SW 11.5 mph 18.4 mph N/A   Partly Cloudy
6:52 PM 89.1 °F 94.1 °F 70.0 °F 53% 29.76 in 10.0 mi Variable 6.9 mph 16.1 mph N/A   Clear
7:52 PM 87.1 °F 92.8 °F 71.1 °F 59% 29.77 in 10.0 mi SSW 8.1 mph - N/A   Clear
8:52 PM 84.0 °F 89.6 °F 72.0 °F 67% 29.78 in 10.0 mi South 8.1 mph - N/A   Clear
9:52 PM 82.9 °F 87.5 °F 71.1 °F 67% 29.78 in 10.0 mi South 6.9 mph - N/A   Clear
10:52 PM 82.0 °F 86.3 °F 71.1 °F 69% 29.79 in 10.0 mi SSW 8.1 mph - N/A   Clear
11:52 PM 81.0 °F 84.1 °F 69.1 °F 67% 29.82 in 10.0 mi NW 9.2 mph - N/A   Partly Cloudy